Location: *
(58.7167°N, 26.1833°E)
Time: 00:29:39
(UTC+00:00)

Cosmos 1953 - Pass Details

Date: 25 August 2019
Orbit: 540 x 557 km, 82.5° (Epoch: 21 September)

Event Time Altitude Azimuth Distance (km) Brightness Sun altitude
Exits shadow 23:14:38 57° 181° (S) 644 2.3 -19.7°
Maximum altitude 23:15:24 83° 101° (E) 554 2.2 -19.7°
Drops below altitude 10° 23:19:25 10° 14° (NNE) 1,820 6.2 -19.6°
Sets 23:21:35 0° 14° (NNE) 2,719 7.5 -19.5°
